Orbital Elements at Epoch 2456970.5 (2014-Nov-09.0) TDB
Reference: JPL K192/21 (heliocentric ecliptic J2000)
Element | Value | Uncertainty (1-sigma) | Units |
e | .461659097412254 | 1.8094e-07 | |
a | 3.736357716665463 | 3.4865e-07 | au |
q | 2.011434185580375 | 8.5811e-07 | au |
i | 6.252793881955874 | 5.3943e-06 | deg |
node | 210.5626387396034 | 4.1175e-05 | deg |
peri | 192.7561165891618 | 4.9985e-05 | deg |
M | 140.8164144526972 | 1.3612e-05 | deg |
tp | 2455938.637377991260 (2012-Jan-12.13737799) | 0.00011084 | TDB |
period | 2637.977577876264 7.22 | 0.00036924 1.011e-06 | d yr |
n | .1364681804042559 | 1.9101e-08 | deg/d |
Q | 5.461281247750552 | 5.0961e-07 | au |
|
Additional Model Parameters
Parameter | Value | Uncertainty (1-sigma) |
A1 [EST] | -9.097066926152616E-10 | 1.094E-10 |
A2 [EST] | 3.480228545313418E-10 | 1.129E-11 |
ALN [SET] | .0408373333128795 | n/a |
NK [SET] | 2.6 | n/a |
NM [SET] | 2. | n/a |
NN [SET] | 3. | n/a |
R0 [SET] | 5. | n/a |
|
| | Orbit Determination Parameters
Additional Information
|